Weather observations for the past three days for
Naples, Naples Municipal Airport
Imperial (Metric)
Date Time (edt) Wind (mph) Vis. (mi.) Weather Sky Cond. Temperature (ºF) Relative Humidity Wind Chill (°F) Heat Index (°F) Pressure Precipitation (in)
Air Dwpt 6 hour altimeter (in) sea level (mb) 1 hr 3 hr 6 hr
Max. Min.
14 07:53 SE 7 10.00 Fair CLR 0 0 0% 29.9 1012.5 0.04
14 06:53 E 3 10.00 Fair CLR 0 0 0% 29.88 1011.9
14 05:53 NE 3 10.00 Mostly Cloudy FEW026 BKN043 BKN050 0 0 0% 29.87 1011.5 0.04
14 04:53 Calm 10.00 Fair CLR 0 0 0% 29.87 1011.5
14 03:53 SE 7 10.00 Partly Cloudy FEW023 SCT036 SCT044 0 0 0% 29.86 1011.2
14 02:53 E 6 10.00 Fair CLR 0 0 0% 29.85 1010.8
14 01:53 N 3 10.00 Fair CLR 0 0 0% 29.83 1010.2
14 00:53 Calm 10.00 Fair CLR 0 0 0% 29.86 1011.2
13 23:53 SE 8 10.00 Partly Cloudy FEW021 SCT029 SCT037 0 0 0% 29.9 1012.5
13 22:53 SE 6 10.00 Mostly Cloudy SCT020 BKN028 78.1 78.1 100% 81 29.91 1012.8
13 21:53 E 6 10.00 A Few Clouds FEW017 78.1 78.1 100% 81 29.89 1012.1
13 20:53 Calm 10.00 Partly Cloudy SCT019 79 78.1 97% 83 29.87 1011.3
13 19:53 S 7 10.00 Partly Cloudy SCT012 80.1 79 80.1 75.9 97% 87 29.85 1010.7 1.73
13 18:53 S 3 10.00 Fair CLR 78.1 78.1 100% 81 29.84 1010.4
13 17:53 S 10 10.00 A Few Clouds FEW075 77 77 100% 78 29.85 1010.7
13 16:53 SE 14 10.00 Mostly Cloudy FEW004 BKN090 BKN110 75.9 75.9 100% 75 29.89 1011.9 0.01 1.73
13 15:53 SE 7 4.00 Light Rain Fog/Mist BKN006 BKN009 OVC040 75.9 75.9 100% 75 29.91 1012.7 0.26
13 14:53 SW 7 1.00 Thunderstorm Heavy Rain Fog/Mist FEW018 OVC026 75.9 75.9 100% 75 29.92 1012.9 1.46
13 13:53 SW 14 G 21 2.00 Thunderstorm in Vicinity Heavy Rain Fog/Mist BKN008 BKN035 OVC060 79 79 86 78.1 100% 84 29.9 1012.5 0.25 0.41
12 12:53 SW 14 G 24 3.00 Light Rain Fog/Mist BKN009 BKN040 OVC110 82.9 82 97% 97 29.88 1011.6 0.15
12 11:52 W 15 G 29 7.00 Thunderstorm Light Rain BKN016 BKN035 OVC110 81 80.1 97% 90 29.89 1012.1
12 10:53 SW 20 G 30 8.00 Light Rain BKN021 84 80.1 88% 97 29.87 1011.4 0.08
12 09:53 SW 17 G 26 10.00 Mostly Cloudy BKN021 87.1 82 85% 106 29.88 1011.8 0.05
12 07:53 S 15 G 24 10.00 Overcast BKN019 BKN027 OVC043 84 81 84 82 91% 98 29.87 1011.4 0.01 0.01
12 06:53 S 13 10.00 Overcast SCT023 BKN042 OVC110 84 81 91% 98 29.86 1010.9
12 05:53 S 12 G 22 10.00 Mostly Cloudy SCT021 BKN026 BKN048 84 80.1 88% 97 29.87 1011.3
12 04:53 S 16 G 24 10.00 Mostly Cloudy FEW023 BKN100 84 80.1 88% 97 29.86 1011.0
12 03:53 S 16 G 24 10.00 Overcast FEW025 BKN036 OVC100 82.9 79 88% 94 29.87 1011.3
12 02:53 S 12 G 21 10.00 Overcast BKN100 OVC120 82.9 78.1 85% 93 29.88 1011.6
12 01:53 S 16 G 28 10.00 A Few Clouds FEW018 82.9 78.1 82.9 78.1 85% 93 29.87 1011.3
12 00:53 SW 16 G 26 10.00 Mostly Cloudy SCT021 BKN080 82.9 78.1 85% 93 29.88 1011.7
11 23:53 S 17 G 30 10.00 Mostly Cloudy SCT024 BKN090 82 77 85% 90 29.89 1011.9
11 22:53 S 13 G 25 10.00 Overcast FEW024 SCT060 OVC085 82 77 85% 90 29.91 1012.6
11 21:53 S 17 G 26 10.00 Overcast BKN016 BKN021 OVC065 81 78.1 91% 89 29.9 1012.2
11 20:53 S 8 10.00 Mostly Cloudy FEW016 BKN120 78.1 77 97% 81 29.88 1011.6
11 19:53 SW 20 G 31 9.00 Light Rain FEW013 BKN036 OVC070 80.1 79 81 75 97% 87 29.87 1011.3 0.14 0.97
11 18:53 SE 10 10.00 Light Rain SCT025 BKN036 BKN043 79 79 100% 84 29.86 1011.0 0.01
11 17:53 SE 9 6.00 Light Rain Fog/Mist BKN009 BKN014 OVC025 79 79 100% 84 29.85 1010.7 0.12
11 16:53 SE 8 7.00 Light Rain BKN014 BKN030 OVC047 80.1 80.1 100% 87 29.87 1011.3 0.01 0.7
11 15:53 S 7 10.00 Overcast FEW007 BKN011 OVC016 79 79 100% 84 29.87 1011.3 0.2
11 14:53 S 8 1.50 Rain Fog/Mist FEW037 BKN075 OVC095 77 77 100% 78 29.88 1011.7 0.49
11 13:53 SW 9 0.75 Heavy Rain Fog/Mist VV017 75 75 79 75 100% 72 29.91 1012.8 1.29 2.26
11 12:53 SE 12 2.50 Heavy Rain Fog/Mist FEW006 BKN035 OVC090 78.1 78.1 100% 81 29.93 1013.2 0.34
11 11:53 S 5 4.00 Light Rain Fog/Mist BKN110 79 79 100% 84 29.91 1012.8 0.08
11 10:53 S 6 5.00 Light Rain Fog/Mist FEW070 BKN100 OVC120 79 78.1 97% 83 29.92 1012.9 0.12 0.55
11 09:53 S 9 5.00 Light Rain Fog/Mist FEW016 SCT090 OVC110 78.1 77 97% 81 29.91 1012.6 0.2
11 08:53 SW 9 4.00 Light Rain Fog/Mist SCT012 BKN075 OVC090 78.1 78.1 100% 81 29.89 1012.2 0.23
Date Time (edt) Wind (mph) Vis. (mi.) Weather Sky Cond. Air Dwpt Max. Min. Relative Humidity Wind Chill (°F) Heat Index (°F) altimeter (in) sea level (mb) 1 hr 3 hr 6 hr
6 hour
Temperature (ºF) Pressure Precipitation (in)